Temp
-5 -5 -5 -5 -5 -5 -5 -5 -5 -5 -6 -6 -6 -6 -6 -6 -6 -6 -6 -6 -6 -6 -7 -7 -7 -7 -7 -7 -7 -7 -7 -7 -7 -7 -7 -7 -7 -7 -7 -7 -7 -7
-5 -5 -5 -5 -5 -5 -5 -5 -5 -5 -5 -6 -6 -6 -6 -6 -6 -6 -6 -6 -6 -6 -6 -7 -7 -7 -7 -7 -7 -7 -7 -7 -7 -7 -7 -7 -7 -7 -7 -7 -7 -7
-5 -5 -5 -5 -5 -5 -5 -5 -5 -5 -5 -5 -6 -6 -6 -6 -6 -6 -6 -6 -6 -6 -6 -6 -7 -7 -7 -7 -7 -7 -7 -7 -7 -7 -7 -7 -7 -7 -7 -7 -7 -6
-5 -5 -5 -5 -5 -5 -5 -5 -5 -5 -5 -5 -5 -6 -6 -6 -6 -6 -6 -6 -6 -6 -6 -6 -6 -6 -6 -7 -7 -7 -7 -7 -7 -7 -7 -7 -7 -7 -7 -7 -7 -7
-5 -5 -5 -5 -5 -5 -5 -5 -5 -5 -5 -6 -6 -6 -5 -5 -6 -6 -6 -6 -6 -6 -6 -6 -6 -6 -6 -6 -6 -6 -6 -6 -6 -7 -7 -7 -7 -7 -7 -7 -7 -7
-5 -5 -5 -5 -5 -5 -5 -5 -5 -5 -6 -6 -6 -6 -6 -6 -5 -6 -6 -6 -6 -6 -6 -6 -6 -6 -6 -6 -6 -6 -6 -6 -6 -6 -6 -6 -6 -6 -6 -6 -6 -6
-5 -5 -5 -5 -5 -5 -5 -5 -5 -6 -6 -6 -6 -6 -6 -6 -5 -6 -6 -6 -6 -6 -6 -6 -6 -6 -6 -6 -6 -6 -6 -6 -6 -6 -6 -6 -6 -6 -6 -6 -6 -6
-5 -5 -5 -5 -5 -5 -6 -6 -6 -6 -6 -6 -6 -6 -5 -5 -5 -5 -6 -6 -6 -6 -6 -6 -6 -6 -6 -6 -6 -6 -6 -6 -6 -6 -6 -6 -6 -6 -6 -6 -6 -6
-5 -5 -5 -5 -5 -5 -5 -5 -5 -5 -5 -6 -6 -5 -5 -6 -5 -5 -5 -6 -6 -5 -6 -6 -6 -6 -6 -6 -6 -6 -6 -6 -6 -6 -6 -6 -6 -6 -6 -6 -6 -6
-5 -5 -5 -6 -6 -6 -5 -5 -5 -5 -5 -5 -5 -5 -5 -5 -5 -5 -5 -6 -5 -5 -5 -5 -5 -6 -6 -6 -6 -6 -6 -6 -6 -6 -6 -6 -6 -6 -6 -6 -6 -6
-5 -5 -5 -6 -6 -6 -6 -5 -5 -5 -5 -5 -5 -5 -5 -5 -5 -5 -5 -5 -5 -5 -5 -5 -5 -5 -5 -6 -6 -6 -5 -5 -6 -6 -6 -6 -6 -6 -6 -6 -6 -6
-6 -6 -5 -5 -6 -6 -6 -5 -5 -5 -5 -5 -5 -5 -5 -5 -5 -5 -5 -5 -5 -5 -5 -5 -5 -6 -6 -6 -6 -6 -6 -6 -6 -6 -6 -6 -6 -6 -6 -6 -6 -6
-6 -6 -6 -6 -6 -6 -6 -6 -6 -6 -6 -5 -5 -5 -5 -5 -5 -5 -5 -5 -5 -5 -5 -5 -6 -6 -6 -6 -6 -6 -5 -6 -6 -5 -5 -6 -6 -6 -6 -6 -6 -6
-6 -6 -6 -6 -6 -6 -6 -6 -7 -7 -6 -6 -6 -5 -5 -5 -5 -5 -5 -5 -5 -5 -6 -5 -6 -6 -6 -5 -6 -6 -6 -6 -6 -5 -6 -6 -6 -5 -5 -5 -6 -6
-6 -6 -7 -7 -6 -6 -6 -6 -7 -7 -7 -7 -7 -6 -5 -5 -5 -5 -5 -5 -5 -5 -6 -6 -6 -6 -6 -6 -6 -6 -6 -6 -6 -6 -6 -6 -6 -5 -5 -5 -5 -6
-7 -6 -7 -7 -7 -6 -6 -6 -6 -7 -7 -8 -7 -7 -6 -6 -6 -5 -5 -5 -5 -5 -5 -5 -6 -6 -6 -6 -6 -6 -6 -6 -6 -6 -6 -6 -5 -5 -6 -6 -6 -6
-7 -6 -7 -7 -7 -7 -7 -6 -6 -7 -7 -7 -7 -7 -7 -7 -7 -6 -6 -6 -6 -5 -5 -5 -6 -6 -6 -6 -6 -6 -6 -6 -6 -6 -6 -5 -5 -5 -6 -6 -6 -6
-7 -7 -7 -7 -6 -7 -7 -7 -7 -7 -7 -7 -7 -7 -7 -7 -7 -7 -7 -7 -7 -6 -6 -5 -6 -6 -6 -6 -6 -6 -6 -6 -6 -6 -6 -5 -5 -6 -6 -6 -6 -6
-7 -7 -7 -7 -6 -6 -6 -6 -6 -6 -7 -7 -7 -6 -6 -7 -7 -7 -7 -7 -7 -7 -6 -6 -6 -6 -6 -6 -6 -6 -6 -6 -6 -6 -6 -6 -6 -6 -6 -5 -5 -5
-7 -7 -7 -7 -7 -6 -6 -6 -6 -6 -6 -6 -6 -6 -6 -6 -7 -7 -7 -7 -7 -7 -7 -7 -7 -7 -6 -6 -6 -6 -6 -6 -6 -6 -6 -6 -6 -6 -6 -5 -5 -5
-7 -7 -7 -7 -7 -7 -6 -6 -6 -6 -6 -6 -6 -6 -6 -6 -6 -7 -7 -7 -6 -6 -6 -7 -7 -7 -7 -7 -7 -6 -6 -6 -6 -5 -5 -5 -6 -6 -6 -6 -5 -5
-8 -8 -7 -7 -7 -7 -6 -6 -6 -5 -5 -6 -6 -6 -7 -6 -6 -6 -7 -7 -6 -6 -6 -6 -6 -7 -7 -6 -6 -6 -6 -6 -6 -5 -5 -5 -6 -6 -6 -6 -6 -6
-8 -8 -8 -7 -7 -7 -6 -6 -6 -5 -5 -5 -6 -6 -6 -6 -6 -6 -7 -6 -6 -7 -7 -7 -7 -6 -6 -6 -6 -6 -6 -6 -6 -6 -6 -6 -6 -6 -6 -6 -6 -6
-8 -8 -8 -7 -7 -7 -6 -6 -6 -6 -6 -6 -6 -6 -6 -6 -6 -7 -7 -7 -6 -7 -7 -7 -7 -7 -6 -7 -7 -6 -6 -6 -6 -6 -6 -6 -6 -6 -6 -6 -6 -6
-8 -8 -8 -7 -7 -7 -7 -7 -7 -7 -7 -7 -7 -7 -6 -7 -7 -7 -7 -7 -7 -7 -7 -7 -7 -6 -7 -7 -7 -7 -7 -7 -7 -7 -7 -6 -6 -6 -6 -6 -6 -6
-8 -8 -8 -7 -7 -7 -7 -7 -7 -7 -7 -7 -7 -7 -7 -7 -7 -7 -7 -7 -7 -7 -7 -7 -7 -7 -7 -7 -7 -7 -7 -7 -7 -7 -7 -6 -6 -7 -7 -7 -7 -7
Height
5936 5937 5938 5938 5938 5939 5940 5940 5941 5941 5942 5942 5942 5943 5943 5944 5944 5944 5945 5945 5946 5946 5946 5947 5947 5947 5947 5947 5948 5948 5948 5948 5948 5948 5948 5949 5949 5949 5948 5948 5948 5948
5936 5936 5937 5938 5938 5939 5939 5940 5941 5941 5942 5942 5942 5943 5943 5944 5944 5944 5945 5945 5946 5946 5946 5946 5946 5946 5946 5947 5947 5947 5947 5947 5947 5948 5948 5948 5948 5948 5948 5948 5948 5948
5934 5935 5936 5937 5938 5938 5939 5939 5940 5941 5941 5942 5942 5943 5943 5943 5944 5944 5944 5945 5945 5945 5946 5946 5946 5946 5946 5946 5947 5947 5947 5947 5947 5947 5948 5948 5948 5948 5948 5948 5948 5948
5933 5934 5935 5936 5937 5938 5938 5939 5940 5940 5941 5941 5942 5942 5943 5943 5943 5943 5944 5944 5944 5945 5945 5945 5945 5946 5946 5946 5946 5947 5947 5947 5947 5947 5947 5948 5948 5948 5948 5948 5948 5947
5932 5933 5934 5935 5936 5937 5937 5938 5939 5939 5940 5940 5941 5941 5942 5942 5942 5943 5943 5943 5943 5944 5944 5945 5945 5945 5946 5946 5946 5946 5946 5947 5947 5947 5947 5947 5948 5948 5948 5948 5947 5947
5931 5932 5933 5934 5935 5936 5936 5937 5938 5938 5939 5940 5940 5940 5941 5941 5941 5941 5942 5942 5943 5943 5943 5944 5944 5945 5945 5946 5946 5946 5947 5947 5947 5947 5947 5947 5947 5947 5947 5947 5947 5947
5929 5930 5932 5933 5933 5934 5935 5936 5937 5937 5938 5939 5939 5939 5939 5940 5940 5940 5941 5941 5942 5942 5943 5943 5943 5944 5944 5945 5945 5946 5946 5946 5947 5947 5947 5947 5947 5947 5947 5947 5947 5946
5927 5929 5930 5931 5932 5933 5934 5934 5935 5936 5936 5937 5937 5937 5938 5938 5938 5939 5939 5940 5940 5941 5941 5942 5943 5943 5943 5944 5945 5945 5945 5945 5946 5946 5946 5946 5946 5946 5946 5946 5946 5945
5926 5927 5927 5929 5930 5931 5932 5932 5933 5934 5934 5935 5935 5935 5936 5936 5936 5936 5937 5938 5938 5939 5939 5940 5941 5941 5942 5942 5943 5944 5944 5944 5945 5945 5945 5945 5945 5946 5945 5945 5945 5945
5924 5925 5926 5927 5928 5929 5930 5930 5931 5932 5933 5933 5934 5934 5934 5934 5935 5935 5935 5936 5936 5936 5937 5938 5939 5939 5940 5941 5941 5942 5942 5943 5943 5944 5944 5944 5944 5945 5944 5944 5944 5944
5923 5924 5925 5926 5927 5928 5928 5929 5930 5931 5931 5932 5932 5933 5933 5933 5934 5934 5934 5934 5934 5935 5935 5936 5937 5938 5938 5939 5940 5940 5941 5942 5942 5942 5942 5942 5943 5943 5943 5943 5943 5943
5921 5923 5924 5925 5927 5927 5928 5928 5929 5930 5930 5931 5931 5932 5932 5932 5933 5933 5933 5933 5933 5934 5934 5935 5935 5936 5937 5938 5938 5938 5939 5940 5940 5940 5940 5940 5940 5941 5942 5942 5942 5942
5919 5920 5922 5924 5925 5926 5926 5927 5928 5928 5928 5929 5929 5930 5931 5931 5932 5932 5932 5932 5933 5933 5934 5934 5935 5935 5935 5936 5936 5936 5937 5937 5937 5938 5938 5937 5938 5938 5939 5939 5940 5940
5917 5919 5922 5923 5923 5924 5924 5925 5926 5926 5926 5926 5926 5927 5928 5929 5930 5930 5930 5931 5932 5932 5933 5933 5933 5933 5933 5933 5934 5935 5935 5935 5935 5935 5935 5935 5935 5935 5936 5937 5937 5938
5916 5918 5919 5920 5920 5920 5922 5923 5924 5925 5925 5924 5924 5925 5925 5926 5927 5927 5928 5929 5930 5930 5931 5930 5930 5931 5930 5930 5931 5932 5933 5933 5933 5933 5932 5932 5932 5933 5934 5934 5935 5935
5914 5915 5915 5915 5915 5916 5918 5919 5920 5921 5922 5922 5922 5923 5923 5923 5923 5924 5925 5925 5926 5927 5927 5927 5927 5927 5927 5926 5927 5929 5929 5929 5930 5929 5930 5930 5930 5931 5931 5931 5931 5931
5911 5911 5911 5910 5910 5911 5913 5914 5915 5916 5918 5918 5918 5919 5920 5920 5920 5921 5921 5922 5923 5923 5922 5923 5923 5922 5922 5923 5924 5925 5925 5926 5927 5926 5927 5927 5928 5929 5929 5928 5928 5927
5907 5907 5906 5906 5906 5907 5909 5911 5912 5913 5914 5914 5914 5914 5915 5916 5917 5919 5918 5917 5918 5917 5917 5919 5919 5918 5919 5919 5920 5920 5921 5922 5924 5924 5924 5924 5925 5926 5926 5925 5924 5924
5901 5902 5903 5902 5903 5904 5905 5907 5908 5908 5909 5910 5909 5909 5911 5912 5913 5913 5912 5911 5912 5913 5914 5915 5914 5914 5914 5915 5915 5916 5917 5918 5919 5919 5920 5920 5922 5923 5922 5922 5922 5921
5897 5898 5898 5899 5899 5899 5900 5901 5902 5902 5903 5904 5904 5905 5907 5907 5908 5908 5907 5907 5908 5909 5911 5911 5909 5909 5910 5910 5911 5912 5912 5913 5914 5915 5915 5916 5918 5919 5919 5919 5919 5919
5893 5894 5894 5895 5894 5895 5895 5896 5896 5897 5898 5899 5899 5900 5902 5902 5903 5903 5903 5904 5903 5904 5906 5907 5906 5905 5905 5906 5907 5907 5908 5909 5909 5910 5911 5911 5912 5913 5914 5915 5915 5915
5890 5890 5891 5891 5891 5891 5891 5891 5892 5893 5893 5894 5894 5895 5896 5897 5898 5899 5899 5900 5899 5899 5901 5903 5902 5901 5901 5902 5902 5903 5903 5904 5905 5906 5907 5907 5908 5907 5907 5909 5909 5909
5887 5887 5888 5888 5888 5888 5888 5888 5887 5888 5888 5888 5888 5890 5891 5892 5893 5894 5894 5895 5896 5896 5897 5897 5897 5896 5897 5898 5898 5899 5899 5899 5900 5903 5903 5903 5903 5903 5902 5903 5903 5902
5884 5885 5885 5885 5885 5885 5885 5884 5883 5883 5883 5883 5883 5884 5885 5886 5887 5888 5889 5890 5892 5892 5892 5892 5892 5891 5892 5892 5893 5894 5895 5895 5897 5899 5900 5899 5899 5898 5898 5898 5897 5896
5881 5881 5882 5882 5882 5882 5881 5880 5880 5880 5880 5879 5879 5879 5880 5881 5881 5882 5883 5885 5886 5887 5887 5886 5886 5886 5887 5888 5888 5889 5890 5891 5893 5894 5894 5894 5893 5892 5893 5893 5891 5890
5878 5878 5879 5879 5879 5879 5878 5877 5877 5877 5877 5877 5877 5877 5877 5877 5877 5877 5878 5879 5880 5881 5881 5881 5881 5882 5883 5883 5883 5884 5885 5885 5887 5887 5886 5886 5887 5887 5886 5886 5885 5885
Wind_Speed
11 10 10 10 9 9 8 8 8 7 7 7 8 8 7 7 7 7 6 6 6 6 5 5 5 4 4 3 3 3 2 1 1 0 0 0 1 1 2 1 1 2
12 12 12 11 11 10 9 9 9 8 8 8 9 9 9 8 8 8 8 8 7 7 7 6 6 6 5 4 4 3 2 2 1 1 1 1 1 2 2 1 2 2
14 13 14 13 12 12 11 11 10 10 9 9 10 10 10 9 9 9 8 8 8 8 8 7 7 6 6 6 5 5 4 3 3 3 3 3 2 2 2 3 3 3
15 15 15 15 14 14 13 13 12 11 10 10 10 10 10 10 10 10 9 9 9 9 8 8 8 7 7 7 7 6 6 5 4 4 4 4 3 3 4 4 5 5
17 16 16 16 15 15 15 14 13 12 11 11 12 12 11 11 11 10 10 10 10 10 10 9 9 9 9 8 8 7 7 7 6 5 5 5 5 5 5 5 6 6
19 18 17 17 16 16 16 15 14 13 13 13 13 13 13 12 11 11 11 11 11 11 11 11 11 11 10 10 10 9 9 8 7 7 7 7 7 7 7 7 7 7
21 20 19 18 18 17 17 17 16 16 15 15 15 15 15 14 13 12 12 12 12 12 12 12 12 12 12 12 11 11 11 10 9 9 9 9 9 9 8 8 8 8
22 22 21 21 20 20 19 19 19 18 18 17 17 17 16 16 15 14 14 13 13 13 13 13 14 14 14 14 13 13 13 12 12 12 12 11 11 11 11 10 10 10
22 22 22 22 21 21 21 21 21 20 20 19 19 19 18 18 17 16 16 16 15 15 15 15 15 15 16 16 16 15 15 14 14 14 14 13 13 13 13 13 12 12
23 22 22 22 22 23 23 23 23 22 22 21 21 21 21 20 19 19 18 18 18 17 17 17 16 17 17 17 17 17 17 16 15 16 16 14 14 15 15 15 15 15
23 23 23 22 22 23 23 24 24 23 23 23 22 22 23 22 21 21 20 20 20 19 19 18 18 18 18 18 18 18 18 18 17 17 17 16 16 17 17 17 17 17
24 23 23 22 22 23 23 24 24 25 24 24 23 23 23 23 23 23 22 22 22 21 20 19 19 18 19 19 19 20 20 19 19 19 18 18 18 19 19 19 19 20
24 23 23 23 22 22 23 24 24 25 25 25 25 24 23 24 24 24 24 24 23 23 22 20 19 19 20 20 20 21 21 21 21 21 20 19 19 20 21 20 20 20
24 23 23 23 22 22 23 25 26 26 26 26 26 26 25 25 25 26 26 25 24 24 23 22 21 21 21 22 22 21 21 22 22 22 22 22 22 23 22 21 21 21
23 23 23 23 23 23 23 25 26 26 26 27 27 27 27 26 26 27 27 26 26 25 24 25 24 23 23 24 23 22 22 23 24 24 24 24 25 24 23 23 23 22
24 25 25 25 25 26 25 26 27 26 27 30 30 28 27 27 26 27 27 28 27 26 25 26 26 26 26 26 26 25 25 25 25 25 25 26 27 26 24 24 24 25
26 28 30 29 28 28 29 30 30 28 28 30 31 31 30 29 27 27 28 29 29 29 28 26 26 27 29 30 29 28 27 27 26 27 26 26 27 27 27 27 27 28
28 30 32 32 31 31 31 32 32 32 30 29 30 32 33 30 28 28 29 29 29 30 29 28 29 30 30 31 31 31 30 29 28 28 27 27 28 28 29 30 30 31
29 30 32 33 34 34 35 35 35 35 33 31 31 32 32 31 30 30 31 30 31 31 30 30 31 32 32 32 33 33 32 31 30 30 30 29 29 30 31 32 32 32
31 32 33 33 34 34 34 36 38 38 36 35 34 34 33 33 32 32 33 32 33 34 32 32 33 34 34 34 34 35 34 33 33 32 32 32 30 30 32 32 32 32
31 32 32 32 31 31 30 31 34 37 38 38 37 36 35 35 34 35 35 35 35 35 34 34 35 36 37 36 36 37 36 36 35 34 34 34 32 31 31 31 31 32
24 25 27 28 29 28 28 27 28 32 36 38 39 39 38 37 37 37 38 37 37 36 34 35 37 39 39 39 39 39 38 38 38 36 36 36 36 34 33 32 32 31
18 19 21 23 24 24 25 26 26 26 30 34 37 39 40 40 39 40 41 40 39 37 36 36 39 40 40 41 41 41 41 41 40 37 36 38 39 38 36 35 35 34
19 19 19 20 21 22 23 23 23 23 24 27 31 35 38 40 41 41 42 41 40 40 40 40 42 43 42 42 43 43 43 43 41 38 36 38 41 41 38 37 38 38
20 21 21 21 21 21 23 22 22 22 19 17 19 25 30 35 40 43 43 43 42 41 40 40 42 44 43 43 44 43 44 43 40 39 41 42 43 42 40 39 41 42
21 21 21 22 21 22 24 24 23 23 21 17 18 21 21 23 28 32 36 40 43 45 44 42 41 41 41 43 44 43 44 45 41 39 41 44 44 43 41 40 42 44
Wind_Direction
224 227 227 224 219 214 215 217 219 218 221 226 228 229 227 224 226 226 228 230 225 218 210 210 213 209 210 211 198 196 194 193 201 162 326 295 308 290 270 263 270 265
222 225 228 231 231 229 227 227 230 231 231 235 238 240 240 238 239 238 237 238 237 233 226 223 223 217 214 218 220 217 203 203 216 219 249 262 270 270 266 276 277 269
224 224 226 229 231 233 235 233 233 235 237 240 244 246 246 245 245 246 246 246 246 244 240 239 238 231 225 224 225 230 229 223 219 223 239 247 247 256 258 256 256 255
229 229 229 231 232 233 236 237 238 241 243 245 248 249 249 249 248 248 249 251 253 254 254 252 252 250 246 243 239 239 240 238 235 237 243 249 255 265 266 262 261 262
234 234 235 237 239 239 240 242 244 247 249 251 252 251 250 249 250 250 251 253 254 256 258 259 259 258 258 257 256 253 251 253 254 252 253 257 261 266 271 273 273 269
241 240 239 240 243 245 247 249 251 252 253 253 253 254 253 251 249 250 251 254 255 255 256 258 260 260 260 260 260 260 259 259 260 260 258 258 259 262 266 272 275 275
243 243 244 244 244 246 248 249 250 251 251 251 251 253 254 253 252 252 253 253 254 256 256 256 257 258 258 257 258 259 259 259 260 262 261 260 261 264 265 268 273 276
242 243 245 246 246 247 247 248 249 248 248 248 249 250 250 252 251 251 252 253 252 254 255 256 255 254 254 254 253 254 257 259 260 261 261 261 263 265 266 266 268 271
242 245 247 249 250 250 250 250 249 248 248 248 249 250 249 249 249 248 249 250 250 250 251 252 253 254 254 254 253 252 254 256 257 259 262 264 267 269 270 271 272 272
242 245 247 250 252 254 254 254 253 252 250 249 250 252 253 251 250 250 248 248 249 248 248 249 250 251 252 253 254 255 255 255 257 260 262 264 268 270 270 272 274 272
247 248 249 251 253 256 258 258 259 258 256 254 252 254 256 257 256 255 253 252 251 250 250 250 251 252 254 255 255 256 256 256 257 259 262 264 267 268 269 270 272 273
250 250 252 253 254 258 261 263 266 266 264 263 261 258 259 261 261 260 259 257 255 255 254 254 254 255 256 258 258 258 258 258 258 259 262 265 267 268 270 272 273 275
250 250 252 253 253 255 258 262 266 267 267 267 265 264 264 264 265 265 263 262 261 260 259 258 258 258 258 257 257 258 259 259 259 261 263 264 264 267 271 272 273 275
253 254 256 257 258 258 258 260 261 260 264 268 266 266 265 263 265 266 266 266 266 266 266 264 259 258 258 257 256 257 260 260 260 260 260 260 260 262 265 268 272 274
254 256 255 253 256 260 262 264 262 257 261 267 267 267 266 265 265 266 268 268 267 266 267 267 263 259 258 258 258 258 258 260 261 261 259 259 260 262 263 265 269 270
254 253 251 250 253 257 257 258 258 256 258 260 260 260 264 268 267 265 266 266 265 263 261 263 265 262 258 258 258 256 254 254 259 263 263 261 261 264 265 265 267 269
255 253 253 255 257 259 256 253 254 254 255 256 254 250 254 262 266 266 267 266 265 264 260 258 260 260 259 260 259 257 255 253 256 260 262 260 260 262 262 263 265 267
258 254 255 258 261 262 261 258 257 256 255 255 255 251 250 253 256 263 270 270 265 262 259 256 256 257 258 259 258 257 256 255 255 257 259 260 260 260 260 260 261 264
260 258 260 263 265 265 264 261 260 258 255 252 253 254 254 253 250 253 259 261 259 259 259 257 256 254 254 255 256 256 256 255 254 254 255 256 257 260 261 260 260 263
264 265 267 268 269 270 269 265 261 258 255 253 252 254 255 255 254 252 251 251 253 255 256 256 256 255 255 256 257 256 255 254 254 253 253 252 253 260 263 263 263 264
263 264 265 266 268 272 274 272 264 258 255 254 254 255 256 256 256 255 254 253 254 254 254 255 255 255 255 256 256 256 257 256 255 254 253 251 252 257 260 261 263 265
261 262 263 264 267 270 275 279 274 264 258 256 254 254 254 255 255 256 256 256 257 258 258 257 256 256 257 257 257 257 258 258 256 255 255 254 252 253 255 255 257 262
271 272 271 270 271 273 278 283 282 272 261 255 254 252 252 253 253 254 256 257 258 259 259 260 260 260 260 261 260 259 259 260 259 258 259 259 255 253 254 254 253 254
282 283 283 282 281 280 280 281 283 281 268 256 252 252 252 253 254 254 255 256 256 258 261 263 264 262 262 263 263 262 260 261 262 261 260 261 259 257 256 257 256 255
283 285 286 288 286 281 278 280 284 286 280 268 264 263 257 256 258 257 255 255 255 257 261 263 264 263 263 265 267 265 261 259 262 263 260 258 259 259 258 259 259 259
283 284 285 287 285 280 278 281 282 282 281 284 291 288 278 272 271 268 264 260 257 256 257 260 264 266 267 268 268 267 263 258 259 264 263 260 259 259 260 262 262 261